Simultaneous Nadir Overpasses (SNOs) Predictions

Prediction of SNOs between GOES-17 and NOAA-19 Satellite Orbit:

Table of predicted SNOs for the next 14.0 days since TLE Epoch: 10/11/2019
Index Date Time (GOES-17) GOES-17 Lat,Lon NOAA-19 Lat,Lon Distance(km) Time Diff (sec)
1 10/12/2019 02:09:39 -0.02,-137.20 0.69,-134.18 344.44 80
2 10/14/2019 14:30:36 0.02,-137.19 0.47,-139.13 221.61 80
3 10/15/2019 14:21:37 0.01,-137.19 -0.20,-136.29 102.30 80
4 10/16/2019 14:09:59 0.01,-137.18 -0.87,-133.45 425.96 80
5 10/18/2019 02:42:50 -0.01,-137.15 -0.98,-141.31 474.51 80
6 10/19/2019 02:28:32 -0.01,-137.14 -0.30,-138.47 151.38 80
7 10/20/2019 02:19:32 -0.00,-137.12 0.33,-135.62 171.58 80
8 10/21/2019 02:07:54 -0.00,-137.10 1.02,-132.78 494.31 80
9 10/22/2019 14:37:51 -0.00,-137.08 0.80,-140.58 399.60 80
10 10/23/2019 14:26:13 -0.00,-137.06 0.13,-137.74 77.36 80
11 10/24/2019 14:17:13 -0.00,-137.03 -0.48,-134.88 244.94 80




NCC Satellite Simultaneous Nadir Overpasses (SNOs) Prediction Service
